Temperature
20 19 19 19 19 18 18 18 18 18 18 18 17 17 17 16 16 16 16 16 16 16 16 15 16 16 16 16 16 16 16 16 16 16 16 16 16 16 16 16 16 15 15
20 19 19 19 18 18 18 18 18 17 17 17 17 17 16 16 16 16 16 16 16 15 15 15 15 15 15 15 15 15 15 16 15 15 15 16 16 15 15 15 15 15 15
19 19 19 18 18 18 18 17 17 17 17 17 16 16 16 16 16 16 16 15 15 15 15 15 15 15 15 15 15 15 15 15 15 15 15 15 15 15 15 15 15 15 15
19 19 18 18 18 18 17 17 17 17 17 17 16 16 16 16 16 16 15 15 15 15 15 15 15 15 15 15 15 15 15 15 15 14 14 14 15 15 14 14 14 14 14
19 18 18 18 18 17 17 17 17 17 17 17 16 16 16 16 16 16 15 15 15 15 15 15 15 14 15 15 14 14 14 14 14 14 14 14 14 14 14 14 14 14 14
18 18 18 17 17 17 17 17 17 16 16 16 16 16 16 15 15 15 15 15 15 14 14 14 14 14 14 14 14 14 14 14 14 13 13 13 14 14 14 13 13 13 13
18 18 17 17 17 17 17 16 16 16 16 16 16 16 16 15 15 15 15 15 14 14 14 14 14 14 14 14 14 14 13 13 13 13 13 13 13 13 13 13 13 13 13
18 17 17 17 17 17 16 16 16 16 16 16 15 15 15 15 15 15 15 14 14 14 14 14 14 14 14 14 13 13 13 13 13 13 13 13 13 13 13 13 13 13 13
17 17 17 17 16 16 16 16 16 15 15 15 15 15 15 15 15 14 14 14 14 13 13 13 13 13 13 13 13 13 13 13 13 13 13 13 13 13 13 13 13 12 12
17 17 17 17 16 16 16 16 15 15 15 15 15 15 14 15 15 14 14 14 13 13 13 13 13 13 13 13 13 13 13 13 13 12 13 13 13 13 13 12 12 12 12
17 16 16 16 16 16 15 15 15 15 15 14 14 14 14 14 14 14 14 13 13 13 13 13 13 13 13 13 13 13 12 12 12 12 12 12 12 12 12 12 12 12 12
16 16 16 16 15 15 15 15 15 15 14 14 14 14 14 14 14 14 14 13 13 13 12 12 12 13 13 13 12 12 12 12 12 12 12 12 12 12 12 12 12 12 12
16 16 16 15 15 15 15 15 14 14 14 14 14 13 13 13 13 13 13 13 13 12 12 12 12 12 12 12 12 12 12 12 12 11 11 11 11 12 12 12 12 12 12
15 15 15 15 15 15 14 14 14 14 14 13 13 13 13 13 13 13 13 12 12 12 12 12 12 12 12 12 12 12 12 12 11 11 11 11 11 11 11 11 11 11 11
15 15 15 15 15 14 14 14 14 14 14 13 13 13 12 12 12 12 12 12 12 12 12 11 11 11 12 12 12 12 12 11 11 11 11 11 11 11 11 11 11 11 11
15 14 14 14 14 14 14 14 14 13 13 13 13 13 12 12 12 12 12 12 12 11 11 11 11 11 11 11 11 11 11 11 11 11 11 11 11 10 10 10 10 10 10
14 14 14 14 14 14 14 13 13 13 13 13 13 12 12 12 12 12 12 11 11 11 11 11 11 11 11 11 11 11 11 11 11 10 10 10 10 10 10 10 10 10 10
14 14 14 14 14 14 13 13 13 13 13 13 12 12 12 12 12 11 11 11 11 11 11 11 11 11 11 10 10 10 10 10 10 10 10 10 10 10 10 9 9 9 9
13 13 13 13 13 13 13 13 13 13 13 12 12 12 12 12 11 11 11 11 11 11 10 10 10 10 10 10 10 10 10 10 10 10 9 9 9 9 9 9 9 9 9
13 13 13 13 13 13 13 13 13 13 12 12 12 12 12 12 11 11 11 11 10 10 10 10 10 10 10 10 10 10 9 9 9 9 9 9 9 9 9 9 9 9 9
13 13 13 13 13 13 13 12 12 12 12 12 12 12 12 11 11 11 11 11 10 10 10 10 10 10 9 9 9 9 9 9 9 9 9 9 9 9 9 9 8 8 8
12 12 13 12 12 12 12 12 12 12 12 12 12 11 11 11 11 11 11 10 10 10 10 10 10 9 9 9 9 9 9 9 9 8 8 8 8 8 8 8 8 8 8
12 12 12 12 12 12 12 12 12 12 12 12 11 11 11 11 11 11 10 10 10 10 10 10 9 9 9 9 9 9 8 8 8 8 8 8 8 8 8 8 8 8 8
12 12 12 12 12 12 12 12 12 11 11 11 11 11 11 11 10 10 10 10 10 10 9 9 9 9 9 9 8 8 8 8 8 8 8 8 8 8 7 7 7 7 7
11 11 12 12 11 12 12 11 11 11 11 11 11 11 10 10 10 10 10 10 10 9 9 9 9 9 8 8 8 8 8 8 8 8 8 8 7 7 7 7 7 7 7
11 11 11 11 11 11 11 11 11 11 11 11 10 10 10 10 10 10 9 9 9 9 9 9 8 8 8 8 8 8 8 8 8 8 8 7 7 7 7 7 7 7 7
Wind_Speed
7 6 6 6 5 4 4 3 2 2 2 2 2 2 2 2 1 1 2 1 2 2 3 2 2 3 3 3 3 2 2 1 2 2 2 1 1 2 1 3 4 5 7
7 6 6 5 5 5 4 4 3 2 2 2 2 2 2 2 1 2 3 2 2 3 3 3 3 2 2 3 3 3 3 2 2 3 2 2 3 3 2 2 3 4 4
7 7 6 5 5 4 4 4 3 3 2 2 2 2 2 2 2 2 2 3 3 3 3 3 3 2 2 2 3 3 3 3 2 3 3 2 2 2 2 3 3 2 5
5 5 5 5 5 4 4 4 3 3 3 2 2 2 2 1 1 1 3 4 3 3 3 3 3 3 2 3 3 2 3 3 3 2 3 2 2 1 1 2 3 2 3
4 4 3 4 4 4 3 3 3 3 3 2 2 3 3 2 1 1 3 4 3 3 3 3 3 3 3 3 3 2 2 2 2 3 3 2 2 2 2 2 3 3 3
3 3 2 2 3 3 3 3 3 2 2 2 3 2 1 1 1 2 2 3 3 3 3 3 2 1 1 2 2 3 3 3 3 3 3 3 3 3 2 3 3 3 3
3 3 3 3 3 3 4 4 4 3 3 2 2 2 2 2 1 1 3 3 2 2 2 3 4 3 1 1 2 4 4 5 5 4 4 4 4 3 3 4 4 4 5
3 3 3 3 3 3 3 3 3 3 3 3 3 2 2 2 2 1 3 3 3 2 2 2 2 2 2 2 3 3 3 3 4 4 4 5 5 3 4 5 5 5 5
3 3 3 3 3 3 3 3 2 2 3 3 2 2 2 2 3 2 3 3 3 3 2 2 1 1 2 2 3 3 4 3 4 5 6 6 7 8 6 4 4 4 5
2 2 2 3 3 3 3 2 2 2 3 3 2 2 2 2 3 2 2 3 3 3 2 1 0 0 2 2 3 3 4 4 5 6 5 6 6 7 7 5 4 4 4
1 2 2 2 3 3 2 2 2 3 3 3 2 2 3 3 3 3 2 2 3 3 3 2 1 1 2 4 4 4 6 6 6 6 5 4 4 4 4 4 4 4 4
0 1 1 2 3 2 2 3 3 3 3 3 3 2 2 2 3 3 3 3 4 3 3 3 2 4 5 6 6 7 8 7 5 4 4 3 3 2 3 3 4 4 5
0 0 1 1 2 2 3 3 3 3 3 3 3 3 3 2 2 1 3 4 4 3 3 4 5 6 6 6 8 8 6 4 3 4 4 4 3 3 3 3 3 3 4
1 1 2 2 2 2 2 2 3 3 3 3 3 3 2 2 1 1 2 3 4 4 4 5 7 7 7 6 5 5 4 3 3 4 4 3 3 3 3 3 2 2 3
1 2 2 2 1 1 2 2 3 2 2 3 2 2 2 2 2 2 3 3 3 3 4 4 4 4 3 3 3 3 3 2 3 3 3 3 3 3 2 2 2 2 3
2 2 3 2 1 2 2 2 1 1 3 3 2 2 1 2 2 2 2 3 4 4 3 4 4 4 4 3 3 3 2 2 2 3 3 3 3 3 3 3 2 3 3
2 3 3 2 2 3 2 2 2 1 1 2 4 4 5 5 4 3 3 4 4 3 3 4 4 3 3 3 3 3 3 2 2 2 3 3 3 3 3 3 3 3 3
3 4 3 2 2 3 3 3 3 3 2 2 3 6 7 7 6 5 3 1 2 2 3 3 3 3 3 3 3 3 2 1 1 2 3 3 3 3 3 3 3 4 4
3 3 3 3 3 3 3 3 3 3 3 3 2 2 5 5 6 5 3 2 3 3 3 4 4 3 3 2 2 2 2 2 2 2 3 3 3 3 3 4 3 4 4
3 3 3 4 4 3 3 3 3 3 3 3 3 2 1 1 2 3 3 4 4 4 3 4 3 2 2 2 2 2 2 2 2 3 3 3 3 3 4 4 4 3 3
4 3 4 4 4 3 3 4 4 3 3 4 3 2 2 3 4 4 4 4 4 3 3 3 2 2 2 2 2 3 3 2 2 3 4 4 4 3 4 3 3 3 3
4 4 3 4 3 3 3 3 4 4 4 5 4 2 5 3 3 3 3 3 3 3 2 2 3 3 2 2 2 3 3 3 3 3 4 4 4 4 4 3 3 3 3
5 5 4 4 4 3 4 4 5 5 4 4 3 3 2 3 3 3 3 3 2 3 2 2 3 3 2 2 2 2 2 3 3 3 4 4 4 4 3 3 3 4 3
5 6 5 5 4 4 5 5 5 5 5 4 3 3 2 3 3 3 3 2 2 2 3 3 3 2 2 2 2 2 1 2 3 3 4 5 5 4 3 3 3 3 3
5 6 6 5 5 5 5 5 5 4 4 3 3 3 4 3 3 3 3 3 3 2 3 2 1 1 2 2 2 2 2 2 3 4 4 4 4 4 3 3 3 3 3
5 5 6 5 5 5 5 5 5 4 4 3 3 3 3 3 4 3 3 2 2 2 2 2 2 2 2 2 3 2 1 1 3 4 4 4 4 3 3 3 4 3 4
Wind_Direction
168 167 165 171 174 175 167 170 169 174 168 167 175 193 203 210 221 250 261 270 282 293 291 283 276 285 305 311 306 306 302 283 271 286 299 310 306 280 246 248 253 229 221
163 166 173 169 174 183 174 174 171 180 193 190 194 211 220 211 232 251 271 280 277 277 280 280 276 269 282 296 300 292 290 282 253 270 281 280 265 255 242 245 258 259 246
163 170 175 178 180 179 176 181 181 184 194 216 207 217 230 223 244 262 271 280 283 282 278 271 266 267 270 280 282 288 287 294 264 258 268 263 265 272 261 260 268 265 268
154 165 171 176 173 179 181 179 185 183 180 201 224 236 238 219 259 292 287 278 282 289 290 289 264 244 251 270 272 285 298 300 289 276 275 272 270 292 276 271 275 271 277
144 156 165 169 169 175 177 178 183 194 196 192 219 238 250 226 255 297 286 273 274 282 290 293 272 244 245 254 270 284 292 290 291 283 280 292 293 319 309 295 290 285 279
147 155 147 164 171 172 179 176 182 194 208 211 218 223 246 259 40 350 327 303 294 297 305 303 289 277 300 238 259 284 283 275 283 291 290 291 294 303 306 301 301 303 294
149 153 157 176 188 188 194 188 196 200 204 209 220 202 170 160 218 316 326 297 287 286 290 292 292 295 314 306 278 273 276 274 268 269 280 284 289 299 302 296 292 287 281
161 169 172 184 186 186 205 205 206 206 213 214 215 197 182 200 201 246 302 272 270 257 261 263 260 299 311 314 287 281 272 275 264 261 268 271 277 278 268 274 281 288 281
173 182 184 192 198 200 211 212 207 209 219 220 215 213 204 201 213 233 290 265 270 276 273 280 242 239 307 314 290 286 288 283 277 270 266 263 258 260 261 271 274 280 290
188 198 198 197 208 211 214 206 209 217 228 231 223 216 212 208 207 218 268 272 275 279 277 257 324 205 271 280 282 285 282 286 291 285 269 259 253 250 248 238 253 269 282
222 213 207 194 204 210 203 205 210 222 226 230 229 225 222 199 188 200 204 281 289 282 277 263 248 242 268 259 256 261 265 275 278 273 270 262 253 245 239 235 235 246 265
55 243 214 202 225 219 198 210 211 217 223 220 217 230 231 197 181 196 212 246 280 286 284 286 278 266 264 260 252 256 265 273 271 276 277 274 276 274 266 252 247 244 245
16 294 255 233 236 223 213 221 215 211 228 223 224 233 235 211 179 177 236 254 274 273 283 292 290 276 265 255 243 249 260 266 274 280 283 280 282 273 270 266 258 257 264
296 268 248 230 242 218 219 223 219 221 227 228 236 249 252 234 226 238 258 264 273 276 282 287 281 270 263 257 247 240 241 247 256 271 279 281 287 289 287 281 283 281 271
299 278 270 251 232 221 233 252 240 224 226 227 236 245 262 261 270 248 246 260 258 261 275 275 270 273 263 258 257 246 241 247 255 268 280 289 293 293 296 298 292 289 286
284 283 282 273 238 241 240 261 341 249 200 196 206 223 230 198 201 229 239 254 265 262 253 263 268 275 279 275 263 256 244 241 248 265 274 277 283 286 285 288 284 285 289
290 289 285 281 256 244 242 241 259 298 248 215 208 211 213 214 216 231 254 275 275 258 250 257 263 265 273 280 276 271 266 258 260 273 278 278 280 279 281 288 290 289 288
292 287 287 287 277 259 256 254 249 252 265 259 236 217 214 219 224 231 243 273 275 252 260 272 276 279 281 286 289 290 285 279 277 283 286 284 281 282 281 280 280 289 295
291 290 292 291 284 271 262 256 261 268 265 261 252 232 215 215 217 223 202 251 269 274 272 274 276 277 281 283 281 278 279 281 293 286 285 286 289 288 285 283 284 291 291
290 298 291 287 283 284 290 287 279 275 274 266 255 250 193 226 237 221 212 239 259 273 277 275 279 286 281 278 275 274 274 276 286 288 289 283 281 284 287 287 285 285 286
297 292 268 279 294 307 305 300 299 293 293 291 280 229 191 238 246 238 228 231 248 263 271 268 265 276 274 265 265 267 270 271 272 283 290 293 289 286 283 285 293 292 290
297 300 296 295 294 295 300 294 292 289 282 279 284 244 199 232 258 259 252 243 250 255 257 264 265 269 276 279 278 278 275 279 285 291 293 293 290 289 289 286 285 282 280
294 292 288 289 290 284 279 278 281 278 278 278 285 288 242 256 274 278 273 265 255 253 245 247 252 257 270 278 284 282 277 282 286 288 287 291 293 287 286 288 288 291 291
288 287 288 287 281 278 277 279 283 284 285 286 286 287 275 271 272 281 281 276 268 256 251 240 240 249 267 285 299 319 309 307 308 290 283 281 285 286 292 293 288 295 297
285 287 288 287 283 285 286 282 280 280 283 284 287 293 291 286 279 273 271 267 272 262 257 252 235 252 268 279 291 303 313 328 324 311 284 271 277 286 290 286 282 280 277
288 289 292 295 296 299 301 299 293 289 286 284 285 286 287 288 287 279 274 267 270 268 262 258 257 269 269 261 272 277 295 320 316 306 290 274 270 270 278 272 273 269 272
Height
1504 1506 1508 1509 1510 1512 1513 1513 1514 1515 1516 1517 1517 1517 1518 1518 1518 1518 1517 1517 1517 1516 1516 1515 1515 1514 1514 1514 1515 1515 1515 1515 1514 1514 1514 1514 1514 1513 1512 1511 1511 1510 1510
1502 1504 1506 1507 1508 1510 1511 1511 1512 1513 1514 1515 1515 1515 1516 1515 1515 1515 1515 1515 1514 1513 1513 1512 1512 1512 1511 1511 1511 1512 1512 1512 1512 1511 1511 1511 1510 1510 1509 1509 1508 1508 1507
1501 1502 1504 1505 1506 1508 1509 1509 1510 1510 1511 1512 1513 1513 1513 1513 1513 1513 1512 1512 1511 1510 1510 1509 1509 1509 1508 1508 1508 1508 1509 1509 1508 1508 1507 1508 1507 1507 1506 1505 1505 1504 1504
1499 1501 1502 1503 1504 1505 1506 1507 1508 1509 1509 1510 1510 1511 1511 1511 1510 1510 1510 1509 1509 1508 1507 1506 1505 1505 1505 1505 1505 1505 1505 1505 1505 1505 1504 1504 1504 1503 1503 1502 1501 1501 1500
1498 1499 1500 1501 1502 1503 1504 1505 1506 1507 1507 1507 1508 1508 1508 1508 1507 1507 1507 1507 1506 1505 1504 1503 1503 1502 1502 1502 1502 1502 1502 1502 1502 1502 1502 1501 1501 1500 1499 1498 1498 1497 1497
1496 1497 1498 1499 1500 1501 1502 1503 1504 1504 1505 1505 1505 1505 1505 1505 1505 1505 1504 1504 1503 1502 1501 1500 1500 1499 1499 1498 1498 1498 1499 1499 1499 1499 1499 1498 1497 1497 1496 1496 1495 1494 1493
1494 1496 1497 1497 1498 1499 1500 1501 1501 1502 1502 1502 1502 1502 1502 1502 1502 1502 1501 1501 1500 1499 1498 1497 1497 1497 1496 1495 1495 1495 1495 1496 1496 1496 1496 1495 1494 1494 1494 1493 1492 1491 1490
1493 1494 1495 1495 1496 1497 1498 1498 1499 1499 1500 1500 1500 1500 1500 1500 1500 1499 1499 1498 1497 1496 1495 1495 1494 1493 1493 1492 1492 1492 1492 1492 1492 1493 1492 1492 1491 1491 1491 1490 1489 1488 1487
1491 1492 1492 1493 1494 1495 1495 1496 1497 1497 1497 1497 1497 1497 1497 1497 1497 1497 1496 1496 1495 1493 1493 1492 1491 1491 1490 1490 1490 1489 1489 1489 1489 1489 1489 1488 1488 1487 1487 1486 1485 1484 1482
1489 1490 1490 1491 1491 1492 1493 1493 1494 1494 1494 1495 1495 1495 1495 1494 1494 1494 1494 1493 1492 1491 1490 1489 1488 1488 1488 1487 1487 1486 1485 1485 1485 1485 1485 1485 1484 1484 1483 1483 1482 1481 1480
1488 1488 1488 1489 1489 1490 1490 1491 1491 1491 1492 1492 1492 1492 1492 1491 1491 1490 1490 1490 1489 1488 1487 1486 1486 1485 1485 1484 1484 1483 1483 1483 1482 1482 1481 1481 1480 1480 1479 1479 1478 1478 1476
1486 1486 1486 1487 1487 1488 1488 1488 1488 1489 1489 1489 1489 1489 1489 1488 1488 1487 1487 1487 1487 1486 1485 1484 1483 1482 1481 1481 1480 1480 1480 1479 1479 1478 1478 1477 1477 1476 1476 1475 1475 1474 1473
1484 1484 1484 1484 1485 1485 1485 1486 1486 1486 1486 1486 1486 1486 1486 1485 1485 1484 1484 1483 1483 1482 1481 1480 1479 1478 1478 1477 1477 1477 1476 1476 1476 1475 1474 1474 1474 1473 1472 1472 1471 1470 1469
1482 1482 1482 1482 1483 1483 1483 1483 1483 1483 1483 1483 1483 1483 1482 1482 1481 1481 1480 1479 1479 1478 1477 1476 1475 1475 1474 1474 1474 1473 1473 1473 1472 1472 1471 1471 1470 1469 1468 1468 1467 1466 1465
1480 1480 1480 1481 1481 1480 1480 1481 1481 1481 1481 1481 1480 1480 1479 1478 1478 1477 1477 1476 1475 1474 1473 1472 1472 1471 1471 1471 1470 1470 1470 1470 1469 1469 1468 1467 1467 1466 1465 1465 1464 1463 1462
1479 1479 1479 1478 1478 1478 1478 1478 1478 1478 1478 1477 1477 1477 1476 1476 1475 1475 1474 1473 1472 1471 1470 1469 1468 1468 1468 1468 1467 1467 1466 1466 1466 1466 1465 1464 1464 1463 1462 1462 1461 1460 1458
1477 1477 1477 1476 1476 1476 1476 1475 1474 1474 1474 1474 1473 1473 1473 1472 1471 1471 1470 1470 1469 1468 1467 1466 1466 1466 1466 1465 1464 1464 1463 1463 1463 1463 1462 1462 1461 1460 1460 1459 1458 1456 1455
1475 1475 1475 1474 1474 1474 1473 1472 1472 1471 1470 1470 1470 1469 1468 1468 1468 1467 1467 1467 1466 1465 1465 1464 1464 1463 1463 1462 1461 1460 1460 1460 1459 1459 1459 1459 1458 1457 1457 1456 1455 1454 1453
1473 1472 1472 1472 1472 1471 1470 1470 1469 1469 1468 1467 1466 1466 1465 1464 1464 1463 1463 1463 1462 1462 1461 1461 1460 1460 1459 1458 1458 1457 1457 1457 1456 1456 1456 1456 1455 1454 1453 1453 1452 1451 1450
1470 1470 1470 1470 1469 1469 1468 1467 1466 1465 1465 1465 1463 1463 1461 1461 1460 1459 1459 1459 1458 1458 1458 1457 1456 1456 1455 1455 1455 1454 1454 1453 1453 1453 1452 1452 1452 1451 1450 1449 1448 1447 1446
1468 1467 1467 1467 1466 1466 1465 1465 1463 1462 1462 1462 1461 1460 1459 1458 1457 1456 1456 1455 1454 1454 1454 1453 1453 1453 1452 1452 1451 1451 1450 1450 1449 1449 1449 1448 1448 1447 1446 1445 1444 1443 1443
1466 1465 1465 1464 1464 1463 1462 1462 1461 1460 1459 1459 1458 1457 1455 1455 1454 1453 1453 1452 1452 1451 1451 1450 1449 1449 1449 1448 1447 1447 1446 1446 1445 1445 1445 1444 1444 1443 1442 1441 1441 1440 1439
1463 1463 1462 1461 1461 1460 1459 1458 1458 1457 1456 1455 1455 1454 1453 1452 1451 1451 1450 1449 1448 1448 1447 1447 1446 1446 1445 1444 1444 1443 1442 1442 1441 1441 1440 1440 1439 1438 1438 1437 1437 1436 1435
1460 1460 1459 1458 1458 1457 1456 1455 1454 1453 1453 1452 1451 1450 1450 1449 1448 1447 1447 1446 1445 1444 1444 1443 1443 1442 1441 1440 1440 1439 1438 1438 1437 1437 1436 1435 1435 1434 1434 1433 1432 1432 1432
1457 1456 1456 1455 1454 1453 1452 1452 1451 1450 1449 1448 1448 1447 1446 1446 1445 1444 1443 1442 1442 1441 1440 1439 1439 1438 1437 1437 1436 1435 1434 1434 1433 1432 1431 1431 1430 1430 1430 1430 1429 1429 1429
1453 1453 1452 1451 1451 1450 1448 1448 1447 1446 1446 1445 1444 1444 1443 1442 1441 1440 1439 1439 1438 1437 1436 1436 1435 1434 1433 1432 1432 1431 1430 1429 1429 1428 1427 1427 1427 1426 1426 1426 1426 1426 1426